Weather History for Cody, WY

Change the Weather History Date:

Friday, November 9, 2012

  Actual Average Record
Temperature  
Mean Temperature 24 °F -  
Max Temperature 28 °F 46 °F 67 °F (1954)
Min Temperature 21 °F 24 °F -5 °F (1966)
Degree Days  
Heating Degree Days 40    
Moisture  
Dew Point 26 °F    
Average Humidity 95    
Maximum Humidity 100    
Minimum Humidity 86    
Precipitation  
Precipitation 0.00 in - - ()
Sea Level Pressure  
Sea Level Pressure 29.65 in    
Wind  
Wind Speed 9 mph (NNE)    
Max Wind Speed 17 mph    
Max Gust Speed 22 mph    
Visibility 6 miles    
Events      
Averages and records for this station are not official NWS values.
T = Trace of Precipitation, MM = Missing Value Source: NWS Daily Summary

Daily Weather History Graph

Daily Weather History Graph

Search for Another Location

Airport:

Trip Planner

Search our weather history database for the weather conditions in past years. The results will help you decide how hot, cold, wet, or windy it might be!

Date:

Astronomy

Nov. 09, 2012 Rise Set
Actual Time 7:05 AM MST 4:54 PM MST
Civil Twilight 6:34 AM MST 5:25 PM MST
Nautical Twilight 5:59 AM MST 6:00 PM MST
Astronomical Twilight 5:25 AM MST 6:34 PM MST
Moon 1:56 AM MST (11/9) 2:18 PM MST (11/9)
Length of Visible Light 10h 51m
Length of Day
9h 49m
Waning Crescent, 22% of the Moon is Illuminated
Nov 9
Waning Crescent
Nov 13
New
Nov 20
First Quarter
Nov 28
Full
Dec 6
Last Quarter

Hourly Weather History & Observations

Time (MST) Temp. Windchill Dew Point Humidity Pressure Visibility Wind Dir Wind Speed Gust Speed Precip Events Conditions
12:15 AM 28.4 °F 21.2 °F 26.6 °F 93% 29.67 in 10.0 mi NE 6.9 mph - N/A   Overcast
12:35 AM 28.4 °F 21.2 °F 26.6 °F 93% 29.67 in 10.0 mi NNE 6.9 mph - N/A   Overcast
12:55 AM 28.4 °F 21.2 °F 26.6 °F 93% 29.67 in 10.0 mi North 6.9 mph - N/A   Overcast
1:15 AM 28.4 °F 19.7 °F 26.6 °F 93% 29.66 in 9.0 mi NNE 9.2 mph - N/A   Overcast
1:35 AM 28.4 °F 21.2 °F 28.4 °F 100% 29.65 in 8.0 mi NNE 6.9 mph - N/A   Overcast
1:55 AM 28.4 °F 19.7 °F 26.6 °F 93% 29.66 in 8.0 mi NNE 9.2 mph - N/A   Overcast
2:15 AM 28.4 °F 18.0 °F 26.6 °F 93% 29.66 in 8.0 mi North 12.7 mph - N/A   Overcast
2:35 AM 26.6 °F 16.8 °F 26.6 °F 100% 29.66 in 7.0 mi North 10.4 mph - N/A   Overcast
2:55 AM 26.6 °F 16.8 °F 24.8 °F 93% 29.66 in 10.0 mi NNE 10.4 mph - N/A   Overcast
3:15 AM 26.6 °F 17.5 °F 26.6 °F 100% 29.65 in 10.0 mi North 9.2 mph - N/A   Overcast
3:35 AM 26.6 °F 18.2 °F 26.6 °F 100% 29.65 in 10.0 mi North 8.1 mph - N/A   Overcast
3:55 AM 26.6 °F 16.8 °F 24.8 °F 93% 29.64 in 7.0 mi NNE 10.4 mph - N/A   Overcast
4:15 AM 26.6 °F 16.2 °F 24.8 °F 93% 29.64 in 8.0 mi NNE 11.5 mph - N/A   Overcast
4:35 AM 26.6 °F 18.2 °F 26.6 °F 100% 29.63 in 7.0 mi North 8.1 mph - N/A   Overcast
4:55 AM 26.6 °F 18.2 °F 24.8 °F 93% 29.63 in 9.0 mi NNE 8.1 mph - N/A   Overcast
5:15 AM 26.6 °F 17.5 °F 26.6 °F 100% 29.62 in 7.0 mi NNE 9.2 mph - N/A   Overcast
5:35 AM 26.6 °F 19.1 °F 24.8 °F 93% 29.62 in 5.0 mi NNE 6.9 mph - N/A   Overcast
5:55 AM 26.6 °F 18.2 °F 26.6 °F 100% 29.60 in 4.0 mi NNE 8.1 mph - N/A   Overcast
6:15 AM 26.6 °F 18.2 °F 24.8 °F 93% 29.61 in 2.5 mi NNE 8.1 mph - N/A   Overcast
6:35 AM 26.6 °F 17.5 °F 26.6 °F 100% 29.61 in 2.5 mi NNE 9.2 mph - N/A   Overcast
6:55 AM 26.6 °F 17.5 °F 26.6 °F 100% 29.62 in 3.0 mi North 9.2 mph - N/A   Overcast
7:15 AM 26.6 °F 19.1 °F 26.6 °F 100% 29.64 in 2.0 mi North 6.9 mph - N/A   Overcast
7:35 AM 26.6 °F 19.1 °F 26.6 °F 100% 29.66 in 2.5 mi NNE 6.9 mph - N/A   Overcast
7:55 AM 26.6 °F 18.2 °F 26.6 °F 100% 29.64 in 5.0 mi NNE 8.1 mph - N/A   Overcast
8:15 AM 28.4 °F 19.7 °F 28.4 °F 100% 29.65 in 2.5 mi NNE 9.2 mph - N/A   Overcast
8:35 AM 28.4 °F 20.4 °F 28.4 °F 100% 29.66 in 2.5 mi NNE 8.1 mph - N/A   Overcast
8:55 AM 28.4 °F 19.7 °F 26.6 °F 93% 29.66 in 2.0 mi NNE 9.2 mph - N/A   Overcast
9:15 AM 28.4 °F 20.4 °F 28.4 °F 100% 29.67 in 1.2 mi NNE 8.1 mph - N/A   Overcast
9:35 AM 28.4 °F 21.2 °F 28.4 °F 100% 29.66 in 0.8 mi North 6.9 mph - N/A   Overcast
9:55 AM 28.4 °F 20.4 °F 28.4 °F 100% 29.66 in 1.2 mi NNE 8.1 mph - N/A   Overcast
10:15 AM 28.4 °F 22.2 °F 28.4 °F 100% 29.67 in 3.0 mi North 5.8 mph - N/A   Overcast
10:35 AM 28.4 °F 21.2 °F 28.4 °F 100% 29.67 in 1.8 mi NNE 6.9 mph - N/A   Overcast
10:55 AM 28.4 °F 19.7 °F 28.4 °F 100% 29.67 in 2.0 mi North 9.2 mph - N/A   Overcast
11:15 AM 28.4 °F 20.4 °F 28.4 °F 100% 29.66 in 1.8 mi NNE 8.1 mph - N/A   Overcast
11:35 AM 28.4 °F 20.4 °F 28.4 °F 100% 29.65 in 3.0 mi NNE 8.1 mph - N/A   Overcast
11:55 AM 28.4 °F 22.2 °F 28.4 °F 100% 29.66 in 8.0 mi NNE 5.8 mph - N/A   Overcast
12:15 PM 28.4 °F 20.4 °F 26.6 °F 93% 29.65 in 10.0 mi NE 8.1 mph - N/A   Overcast
12:35 PM 28.4 °F 19.7 °F 28.4 °F 100% 29.64 in 9.0 mi NE 9.2 mph - N/A   Overcast
12:55 PM 28.4 °F 21.2 °F 26.6 °F 93% 29.63 in 1.5 mi NNE 6.9 mph - N/A   Overcast
1:15 PM 28.4 °F 19.7 °F 28.4 °F 100% 29.63 in 2.5 mi NE 9.2 mph - N/A   Overcast
1:35 PM 28.4 °F 19.7 °F 28.4 °F 100% 29.64 in 3.0 mi NNE 9.2 mph - N/A   Overcast
1:55 PM 28.4 °F 19.1 °F 28.4 °F 100% 29.63 in 1.2 mi NNE 10.4 mph - N/A   Overcast
2:15 PM 28.4 °F 20.4 °F 26.6 °F 93% 29.65 in 1.8 mi NNE 8.1 mph - N/A   Overcast
2:35 PM 28.4 °F 19.1 °F 28.4 °F 100% 29.64 in 2.0 mi NNE 10.4 mph - N/A   Overcast
2:55 PM 28.4 °F 19.1 °F 28.4 °F 100% 29.64 in 2.5 mi North 10.4 mph - N/A   Overcast
3:15 PM 28.4 °F 19.1 °F 26.6 °F 93% 29.63 in 4.0 mi NNE 10.4 mph - N/A   Overcast
3:55 PM 28.4 °F 19.7 °F 26.6 °F 93% 29.65 in 4.0 mi NNE 9.2 mph - N/A   Overcast
4:15 PM 26.6 °F 16.8 °F 26.6 °F 100% 29.65 in 7.0 mi North 10.4 mph - N/A   Overcast
4:35 PM 26.6 °F 13.8 °F 24.8 °F 93% 29.66 in 10.0 mi North 17.3 mph - N/A   Overcast
4:55 PM 26.6 °F 15.7 °F 24.8 °F 93% 29.66 in 10.0 mi North 12.7 mph 21.9 mph N/A   Overcast
5:15 PM 26.6 °F 16.2 °F 24.8 °F 93% 29.65 in 10.0 mi NNW 11.5 mph - N/A   Overcast
5:35 PM 26.6 °F 16.2 °F 24.8 °F 93% 29.65 in 5.0 mi NNW 11.5 mph - N/A   Overcast
5:55 PM 26.6 °F 17.5 °F 24.8 °F 93% 29.66 in 3.0 mi NNW 9.2 mph - N/A   Overcast
6:15 PM 26.6 °F 18.2 °F 24.8 °F 93% 29.65 in 3.0 mi NW 8.1 mph - N/A   Overcast
6:35 PM 26.6 °F 20.0 °F 24.8 °F 93% 29.66 in 5.0 mi NW 5.8 mph - N/A   Overcast
6:55 PM 26.6 °F 21.2 °F 24.8 °F 93% 29.67 in 5.0 mi North 4.6 mph - N/A   Overcast
7:15 PM 26.6 °F 17.5 °F 24.8 °F 93% 29.64 in 7.0 mi North 9.2 mph - N/A   Overcast
7:35 PM 26.6 °F 19.1 °F 24.8 °F 93% 29.66 in 10.0 mi North 6.9 mph - N/A   Overcast
7:55 PM 26.6 °F 17.5 °F 24.8 °F 93% 29.66 in 9.0 mi North 9.2 mph - N/A   Overcast
8:15 PM 26.6 °F 19.1 °F 24.8 °F 93% 29.66 in 10.0 mi North 6.9 mph - N/A   Overcast
8:56 PM 24.8 °F 12.9 °F 21.2 °F 86% 29.67 in 5.0 mi North 13.8 mph 17.3 mph N/A   Overcast
9:15 PM 24.8 °F 12.9 °F 21.2 °F 86% 29.67 in 5.0 mi North 13.8 mph 18.4 mph N/A   Overcast
9:35 PM 23.0 °F 11.1 °F 21.2 °F 93% 29.67 in 4.0 mi North 12.7 mph 20.7 mph N/A   Overcast
9:55 PM 23.0 °F 12.4 °F 21.2 °F 93% 29.67 in 5.0 mi North 10.4 mph - N/A   Overcast
10:15 PM 23.0 °F 11.1 °F 19.4 °F 86% 29.67 in 5.0 mi NNW 12.7 mph 19.6 mph N/A   Overcast
10:35 PM 23.0 °F 10.1 °F 19.4 °F 86% 29.67 in 4.0 mi NNW 15.0 mph - N/A   Overcast
10:55 PM 23.0 °F 14.7 °F 19.4 °F 86% 29.67 in 5.0 mi NNW 6.9 mph - N/A   Overcast
11:15 PM 23.0 °F 13.9 °F 19.4 °F 86% 29.67 in 6.0 mi NNW 8.1 mph - N/A   Overcast
11:35 PM 21.2 °F 7.8 °F 19.4 °F 93% 29.67 in 10.0 mi North 15.0 mph 18.4 mph N/A   Overcast
11:55 PM 21.2 °F 8.9 °F 17.6 °F 86% 29.66 in 10.0 mi North 12.7 mph - N/A   Overcast